Simultaneous Nadir Overpasses (SNOs) Predictions

Prediction of SNOs between AQUA and NOAA-19 Satellite Orbit:

Table of predicted SNOs for the next 14.0 days since TLE Epoch: 2/8/2014
Index Date (AQUA) Time (AQUA) Lat,Lon (AQUA) SZA (AQUA ) Date (NOAA-19) Time (NOAA-19) Lat,Lon (NOAA-19) SZA (NOAA-19 ) Distance(km) Time Diff (sec)
1 02/09/2014 07:22:57 -73.03,-114.87 92.25 02/09/2014 07:22:10 -73.03,-114.86 92.24 0.20 47
2 02/09/2014 08:11:44 70.85, 56.60 85.44 02/09/2014 08:12:34 70.85, 56.62 85.44 0.59 50
3 02/11/2014 12:07:23 -73.30, 173.52 92.69 02/11/2014 12:06:18 -73.29, 173.57 92.68 1.75 65
4 02/11/2014 12:56:16 71.45, -15.44 85.35 02/11/2014 12:56:48 71.45, -15.44 85.35 0.14 32
5 02/13/2014 16:56:07 -81.72, 31.20 78.60 02/13/2014 16:54:54 -80.96, 32.01 78.86 86.23 73
6 02/13/2014 17:40:42 71.76, -87.04 84.95 02/13/2014 17:40:56 71.75, -86.98 84.93 2.56 14
7 02/15/2014 22:25:10 72.22,-158.92 84.67 02/15/2014 22:25:07 72.21,-158.86 84.66 2.38 3
8 02/18/2014 03:09:41 72.87, 128.78 84.60 02/18/2014 03:09:22 72.87, 128.77 84.60 0.50 19
9 02/18/2014 03:58:26 -70.69, -59.83 97.70 02/18/2014 03:59:38 -70.69, -59.82 97.71 0.51 72
10 02/20/2014 07:54:06 73.24, 56.98 84.21 02/20/2014 07:53:31 73.24, 56.97 84.21 0.26 35




NCC Satellite Simultaneous Nadir Overpasses (SNOs) Prediction Service
